Theta_e
299 299 299 298 297 296 296 296 295 295 295 295 297 297 297 297 297 291 286 291 283 278 277 280 281 275 279 278 275 276 274 273 273 270 272 272 272 274 270 272 271 270 269 269 271 267 264 276 276 272 274 275 272 273
299 299 299 298 297 296 296 296 295 295 294 295 297 297 297 297 297 294 281 289 292 284 279 283 284 285 285 284 281 279 278 277 277 273 273 273 273 274 267 266 275 269 272 271 272 272 277 277 275 277 276 274 274 275
299 299 298 298 297 296 295 295 294 295 295 294 296 297 296 296 296 293 283 286 287 282 280 280 276 285 289 287 287 276 274 279 276 281 277 276 273 276 270 270 271 274 276 274 274 276 276 275 276 275 275 275 276 276
299 299 298 298 296 296 295 294 294 294 294 294 296 297 296 296 296 294 285 287 287 283 275 272 285 283 287 287 284 282 281 279 280 280 276 276 274 278 274 274 272 273 273 271 275 275 276 276 274 274 275 275 274 274
299 298 298 298 296 295 295 294 293 294 294 294 296 296 296 294 295 290 289 290 290 284 274 272 276 278 280 280 279 280 280 279 279 275 277 275 278 277 275 270 269 273 271 269 269 272 272 274 275 274 273 273 273 273
299 298 298 297 296 295 294 293 293 293 293 294 295 296 295 295 294 285 281 289 290 288 280 271 273 270 269 272 274 276 279 279 276 277 276 277 282 279 266 263 272 272 272 272 271 271 272 274 275 272 271 272 273 272
299 298 298 297 296 295 294 293 292 292 293 295 296 295 295 295 290 280 280 287 290 288 280 271 266 272 269 267 273 270 275 279 273 273 275 277 279 276 267 263 270 271 270 271 270 270 271 271 268 269 269 269 268 267
299 298 298 297 295 294 293 292 292 292 293 295 294 294 293 293 292 287 290 293 290 283 277 265 267 268 271 267 266 264 268 275 268 268 273 272 276 270 263 270 271 269 270 269 269 269 269 269 268 267 267 268 267 268
299 298 297 296 295 294 293 292 291 292 293 295 293 292 288 285 283 284 291 290 287 283 273 264 261 262 270 265 264 264 261 263 263 261 266 269 266 262 265 269 269 268 267 267 266 265 265 264 264 264 264 264 264 266
299 297 297 296 295 293 292 291 291 292 293 291 282 273 270 281 291 290 283 281 280 275 270 265 261 263 269 264 259 259 258 257 261 261 262 260 261 266 269 267 268 267 265 263 263 263 261 260 259 260 259 257 257 258
297 297 297 295 294 293 291 290 290 291 290 283 279 279 282 288 283 279 273 273 268 272 266 263 262 263 267 263 262 263 260 254 258 262 260 255 260 267 263 261 259 259 259 258 257 257 255 256 255 253 256 254 252 251
296 297 296 295 294 292 291 290 290 287 284 285 283 285 283 278 275 271 262 264 264 268 262 263 264 265 264 265 267 260 258 257 259 254 258 257 266 263 259 258 257 253 252 254 251 255 254 257 254 253 252 253 251 250
295 297 296 295 293 292 291 290 290 291 289 284 282 277 274 265 263 265 257 260 261 259 259 260 263 264 263 265 257 257 258 258 253 255 257 262 263 260 256 253 254 248 247 249 252 249 248 250 249 249 252 251 248 250
294 296 295 295 293 291 291 290 291 287 283 277 274 270 266 258 262 261 261 263 266 262 259 260 259 264 258 262 254 258 254 253 252 254 258 260 263 262 255 249 252 256 251 251 252 249 250 249 250 249 249 248 247 252
293 295 295 293 292 291 290 290 289 283 280 275 273 265 264 261 257 255 254 259 260 261 263 261 260 266 259 260 257 254 255 254 256 259 259 261 260 260 254 250 252 252 251 251 249 250 251 249 248 252 251 247 246 248
293 294 291 292 291 290 290 287 278 275 277 273 274 266 261 261 257 255 253 257 258 263 264 266 265 262 261 259 257 257 256 256 260 257 259 255 257 253 253 253 256 252 250 250 248 248 249 249 251 253 251 249 248 247
292 283 291 291 290 290 288 278 277 274 274 272 266 257 259 256 261 258 257 260 262 264 263 269 264 263 261 256 256 256 260 263 259 260 253 254 259 257 253 252 250 249 250 249 248 248 249 248 244 248 253 252 249 252
284 285 291 290 287 282 274 273 275 272 270 265 264 259 256 256 256 254 255 259 264 262 266 268 268 266 263 258 259 263 261 257 256 256 256 253 253 253 255 258 252 251 252 251 249 249 247 249 251 253 249 249 251 251
285 288 290 289 284 277 272 270 270 269 265 262 262 259 254 255 255 256 256 259 260 262 266 265 267 262 264 266 266 263 258 259 261 261 256 252 252 252 252 251 251 252 252 252 250 252 251 249 252 252 251 249 251 254
289 290 289 287 282 273 269 265 263 265 263 263 261 259 260 258 256 254 255 259 262 262 262 262 264 268 271 270 269 268 268 263 262 260 259 258 254 251 253 253 255 252 251 250 249 250 249 253 250 249 247 249 248 253
287 287 285 277 270 269 267 263 262 262 262 262 259 260 259 259 257 257 258 260 261 259 259 263 265 270 270 268 266 266 265 266 264 266 266 263 255 254 254 253 252 249 253 251 252 251 249 250 251 248 246 251 250 251
281 283 273 275 268 266 263 261 263 263 263 259 261 258 257 255 255 257 258 260 259 260 259 261 263 264 265 266 265 258 260 263 262 262 260 261 258 257 257 256 253 254 250 251 249 250 251 250 247 249 246 251 252 253
281 277 270 269 266 264 259 262 261 260 260 257 256 257 255 254 255 257 257 257 257 256 257 257 257 258 261 260 258 259 257 259 259 257 256 254 251 249 253 250 249 252 252 251 246 247 249 250 249 250 249 251 251 254
275 268 266 263 264 258 257 258 257 256 256 254 255 254 253 254 255 255 255 252 256 256 258 258 254 259 261 263 262 258 257 254 255 254 251 256 255 252 247 248 245 245 248 248 246 247 247 247 249 248 249 250 253 254
269 263 264 259 258 259 258 257 253 254 253 251 253 253 255 254 254 253 253 255 252 250 250 255 257 260 262 263 262 258 255 256 258 257 252 248 248 249 251 248 247 246 244 249 250 247 248 247 247 250 252 251 254 255
260 257 259 257 257 261 258 257 252 252 250 251 251 252 252 253 253 255 253 253 249 248 248 251 251 255 260 259 260 260 256 250 251 254 252 248 249 253 253 253 253 254 245 245 246 247 249 250 250 251 254 255 256 256
256 254 253 254 257 256 254 250 250 251 250 252 250 253 253 252 251 257 253 249 248 246 245 249 253 253 257 257 255 254 253 250 251 252 248 245 244 245 251 254 253 252 244 244 244 245 247 250 252 253 254 256 257 258
257 256 261 255 254 248 250 245 248 251 251 252 254 254 255 256 260 255 251 250 246 246 246 246 253 255 256 254 255 254 254 252 250 247 247 248 245 245 245 245 246 257 247 245 246 246 247 250 251 253 255 255 257 259
257 252 257 252 248 249 249 252 252 250 252 256 259 260 260 256 248 246 248 249 248 248 250 251 254 256 256 255 255 255 254 252 255 255 254 253 252 254 246 245 245 245 244 243 252 257 257 258 258 258 258 258 258 258
253 248 252 248 251 252 250 248 248 245 245 248 250 251 249 248 245 244 245 248 251 252 251 253 257 257 257 255 255 254 250 244 243 251 255 254 254 248 245 245 245 245 243 244 250 252 256 253 255 256 258 259 260 261
246 247 249 247 248 246 245 245 245 245 244 245 244 250 249 248 249 248 250 251 252 253 254 256 256 257 257 256 254 253 252 247 243 244 243 244 244 245 244 244 244 241 242 247 250 251 252 253 256 257 259 259 260 261
247 246 251 251 249 247 244 244 242 245 243 247 248 245 250 255 255 254 251 251 256 256 255 256 258 255 252 249 249 244 248 246 246 246 246 246 245 244 244 243 241 242 248 250 251 251 251 254 256 258 259 259 260 261
245 243 243 247 248 249 247 247 246 249 247 247 249 249 256 255 258 253 252 251 250 251 251 251 250 249 249 248 247 246 246 244 248 257 257 257 255 253 245 242 243 247 249 251 252 251 255 256 258 259 259 260 261 262
Wind_Speed
22 21 20 18 17 17 18 18 19 20 22 22 24 23 22 19 16 5 4 3 2 2 6 4 3 2 4 4 4 5 7 5 3 5 4 4 3 4 3 2 4 4 4 3 2 4 2 14 1 5 3 4 4 5
22 22 21 19 16 18 18 17 19 20 21 21 24 21 20 18 16 6 2 1 0 3 6 4 6 6 5 7 4 2 3 4 3 3 4 4 3 4 2 3 3 4 4 2 4 3 3 3 6 4 2 3 5 5
23 22 21 20 17 18 18 16 19 19 20 21 24 22 16 17 15 6 2 1 1 3 5 3 4 1 1 3 1 2 3 3 3 1 3 3 3 3 4 3 2 6 7 3 2 3 2 4 1 5 4 5 8 7
24 23 21 20 18 18 17 15 18 19 19 21 23 22 16 15 16 6 2 2 1 3 3 7 1 4 2 2 4 3 4 3 4 3 4 4 2 3 3 2 3 3 6 7 2 2 1 4 9 9 8 6 9 8
24 24 21 20 18 18 16 15 17 18 19 21 22 19 11 14 14 1 2 1 2 2 3 5 3 3 1 1 5 5 5 6 3 2 3 1 2 2 2 3 3 4 3 3 2 3 3 6 10 11 10 10 9 8
25 24 22 20 18 18 14 16 17 16 19 21 21 18 11 12 3 1 3 1 1 2 3 4 3 3 3 3 1 3 4 3 1 2 2 3 1 2 3 2 2 3 4 2 4 6 4 8 2 12 9 10 8 7
26 24 23 20 18 17 14 16 16 16 18 20 16 13 12 10 2 2 4 2 3 1 2 5 6 3 0 1 3 3 3 1 2 2 2 2 1 3 3 2 2 4 4 2 4 6 1 7 6 9 7 7 4 3
26 24 23 21 18 16 15 15 14 15 17 18 14 14 8 5 1 3 2 4 3 1 2 1 6 5 4 3 3 2 1 1 4 1 2 2 3 2 3 2 3 5 3 1 6 4 3 3 4 6 5 6 6 6
25 25 23 22 19 17 16 14 12 15 15 16 10 5 2 2 1 1 3 4 1 2 2 2 3 5 4 1 1 4 2 3 2 2 1 1 2 1 4 2 2 3 2 5 6 2 5 3 5 6 6 8 6 8
24 25 24 23 20 18 15 12 11 13 11 3 4 5 2 1 6 5 1 1 1 0 2 3 1 3 2 3 3 2 2 0 1 4 2 3 3 2 1 2 1 2 2 4 3 3 5 4 5 6 4 3 2 3
24 25 26 24 22 19 15 11 11 5 2 1 0 2 1 4 1 1 2 2 2 2 1 2 4 2 2 2 2 1 1 1 3 5 4 3 4 3 3 3 2 3 2 4 3 2 3 4 5 4 5 4 4 5
23 25 27 25 23 19 16 12 9 3 3 3 3 1 1 1 1 2 3 3 2 5 2 3 3 3 3 2 1 3 2 4 4 1 5 3 5 4 4 4 3 2 1 1 2 2 3 3 4 4 5 5 4 5
24 25 29 27 24 21 17 14 9 10 7 2 2 1 2 3 2 6 5 4 2 3 3 0 2 1 3 2 3 4 3 5 1 5 5 6 2 2 4 2 2 2 2 2 2 2 3 4 3 3 4 5 5 6
25 23 29 28 26 22 18 14 12 7 4 3 4 5 5 3 6 7 6 5 4 4 3 3 1 1 1 3 1 3 4 3 4 2 7 4 8 7 6 3 4 5 5 4 4 3 3 2 4 5 6 4 3 6
24 22 30 29 26 22 19 16 13 3 3 4 4 7 7 3 1 2 2 2 2 2 3 2 3 1 2 2 1 3 6 4 6 7 5 4 6 8 6 4 5 5 5 4 3 3 4 4 4 6 5 5 5 5
22 19 15 28 26 22 18 15 5 3 1 2 4 2 1 2 4 2 1 2 2 2 2 3 2 3 3 3 2 7 5 6 6 5 4 0 5 4 5 6 7 4 4 4 4 4 4 5 5 5 7 4 4 5
21 5 29 31 27 25 21 5 3 4 5 5 4 2 3 2 4 3 4 4 2 4 2 3 3 6 2 2 4 5 6 5 4 4 2 3 6 7 5 3 4 4 4 5 3 4 5 3 3 3 5 4 5 6
6 12 35 33 22 12 3 2 3 5 6 2 3 4 2 2 3 1 3 2 4 3 1 3 4 3 4 4 4 5 4 3 3 3 3 3 4 4 4 6 4 4 5 4 4 4 2 3 4 4 5 4 6 5
13 20 36 34 15 7 5 1 1 5 3 3 2 1 2 1 2 0 2 1 2 2 3 1 2 4 5 4 4 3 2 3 3 2 1 2 2 4 4 2 1 3 4 3 2 3 3 4 4 4 3 3 4 5
35 37 36 31 12 5 5 1 1 4 4 2 2 2 2 2 1 2 2 2 2 2 1 3 5 4 3 2 2 2 2 3 4 2 2 3 1 4 4 4 3 2 1 3 3 2 3 4 2 2 2 3 3 7
27 23 27 11 4 6 5 3 2 2 4 3 2 2 2 2 2 2 1 0 2 4 4 5 4 3 1 1 1 1 2 3 4 4 4 3 3 3 1 1 1 0 1 1 2 3 1 3 3 3 3 5 5 6
11 23 6 5 5 4 5 2 3 2 3 2 3 1 3 2 1 1 1 2 4 5 4 2 2 2 2 2 2 1 2 1 1 2 4 7 4 2 2 3 2 3 2 3 2 3 4 3 3 4 3 6 6 7
25 11 6 4 6 5 0 1 4 3 4 2 2 3 2 1 2 1 0 3 4 3 2 2 2 2 1 1 1 2 2 2 2 2 3 3 3 2 3 2 2 2 2 3 2 3 3 4 4 4 5 6 5 8
13 7 5 4 4 4 1 3 2 3 3 3 3 2 1 2 1 3 3 4 3 3 3 5 2 2 2 1 2 2 3 2 3 3 3 4 4 2 1 1 0 1 2 2 2 2 3 3 5 5 5 6 8 8
9 4 4 5 2 6 5 3 3 4 3 1 3 1 1 1 2 1 4 4 3 3 3 5 3 2 1 1 1 1 3 1 2 3 3 1 3 2 3 1 2 3 1 2 4 3 4 4 4 6 7 6 10 11
8 3 3 4 2 4 5 5 4 5 4 2 2 2 1 3 2 5 4 3 2 2 2 1 2 4 3 3 1 1 2 2 2 3 2 2 2 4 3 1 2 4 1 1 1 3 6 6 6 9 10 11 11 11
6 2 2 0 3 6 6 4 3 4 4 5 4 3 3 2 5 5 1 1 1 3 3 2 1 2 3 3 1 2 3 2 1 2 3 3 2 1 3 3 1 3 1 1 3 4 5 7 8 9 10 10 9 9
5 2 7 1 5 2 7 3 4 3 3 3 4 3 7 8 4 1 2 2 2 2 3 3 2 2 2 2 1 1 3 3 3 3 2 2 2 2 3 2 2 3 2 4 4 4 4 5 7 9 10 10 12 9
5 3 4 6 4 5 2 5 5 4 3 4 4 3 3 2 1 1 3 2 2 1 2 1 1 1 2 2 3 3 3 3 3 4 2 1 4 4 3 3 3 3 3 4 7 6 8 7 7 9 10 9 10 10
2 1 6 3 5 2 2 2 2 3 0 2 2 2 3 3 2 1 2 3 2 1 2 2 0 1 2 2 1 3 3 3 1 3 4 2 3 1 3 3 3 4 3 4 6 7 8 4 6 5 6 6 7 8
1 3 6 5 3 2 3 2 2 1 3 3 2 4 2 2 2 1 2 2 2 2 1 1 2 3 2 3 2 2 2 3 2 1 0 2 2 2 2 4 3 3 3 4 5 5 6 5 7 8 9 11 12 11
5 5 5 4 1 3 3 3 1 3 4 4 3 2 1 1 2 2 4 4 2 3 4 2 2 3 4 2 1 1 2 2 2 2 3 2 1 3 4 3 3 3 4 5 5 5 4 7 6 8 9 11 12 12
3 3 3 5 4 4 3 4 5 3 4 3 2 1 2 1 2 2 2 3 3 2 2 3 2 2 2 2 1 2 2 2 4 6 4 2 2 3 3 2 2 3 5 4 5 5 7 8 8 10 11 11 11 11
Wind_Direction
281 281 280 289 291 300 304 307 314 314 319 320 326 324 333 332 324 348 266 228 157 263 273 232 245 250 285 277 285 310 337 338 327 354 326 345 319 16 49 15 353 21 328 13 15 72 17 342 6 55 311 311 285 319
283 281 282 288 286 293 302 308 310 316 316 317 322 325 335 336 334 6 286 342 340 235 263 235 226 223 245 267 282 298 283 287 332 334 349 313 316 346 10 10 357 42 5 352 28 59 69 30 71 346 308 284 311 304
275 271 276 280 279 285 295 300 307 311 314 317 320 324 326 327 339 349 218 244 293 264 280 309 260 204 159 212 185 279 321 355 314 303 304 285 309 331 358 24 331 359 12 29 126 42 101 58 135 23 349 354 332 325
270 265 263 271 270 277 289 294 301 307 312 313 315 319 315 320 330 348 180 198 165 276 278 280 252 260 150 175 215 238 293 295 262 251 232 256 322 3 25 69 51 341 336 334 51 45 355 123 47 10 351 352 350 339
264 264 249 259 259 269 281 287 295 304 306 308 313 320 316 317 323 118 227 182 156 252 270 275 292 267 322 242 255 261 247 265 260 294 259 312 337 355 65 56 28 354 357 5 294 54 305 304 0 7 353 353 347 346
256 255 247 246 248 261 271 282 292 301 302 307 310 309 309 313 34 22 345 14 231 189 299 302 272 332 333 9 341 257 249 252 241 289 287 310 257 298 91 120 98 15 355 319 301 328 283 308 2 11 347 344 342 2
252 249 247 234 238 253 260 273 286 296 300 307 328 314 310 304 137 150 203 209 151 158 270 302 316 294 140 14 298 357 316 285 131 283 322 313 317 32 78 106 334 356 328 108 2 324 198 35 328 335 336 334 347 342
251 246 245 223 227 240 251 267 282 291 299 311 320 315 318 303 352 207 21 92 91 209 77 225 271 4 13 331 350 24 330 345 355 265 348 6 318 58 61 242 24 2 353 52 8 357 300 311 336 346 339 347 17 21
249 242 237 215 218 226 242 257 276 283 300 307 326 311 31 59 218 219 259 90 79 256 248 117 161 264 355 314 269 350 46 356 284 75 344 10 324 82 220 256 7 4 18 308 318 20 12 27 350 357 354 3 13 2
247 235 227 210 211 217 231 247 266 280 312 2 71 65 313 253 313 339 48 209 222 245 37 206 55 281 47 1 314 31 28 158 22 262 335 70 251 263 199 147 113 323 326 333 90 347 347 5 8 337 343 310 300 299
282 226 217 203 205 209 218 230 251 299 344 79 330 226 210 354 35 229 242 203 319 243 114 231 170 235 318 61 242 78 207 301 54 266 103 320 298 224 175 173 275 296 274 241 227 255 235 222 262 294 319 320 318 319
291 232 206 198 199 200 207 215 230 155 187 173 170 124 101 52 61 183 238 326 146 235 278 154 231 191 289 94 68 326 142 37 243 300 69 302 245 193 168 207 243 288 311 250 218 250 285 259 247 246 272 290 295 284
284 237 201 193 190 194 197 202 198 173 145 63 128 198 145 283 46 180 217 282 281 208 228 62 294 183 2 57 60 63 65 228 44 44 226 228 231 206 191 192 279 293 267 268 298 267 296 278 287 222 279 257 285 304
277 245 197 186 186 188 189 187 157 142 100 188 168 212 175 263 235 190 183 185 219 125 146 136 303 144 224 48 145 82 243 57 36 20 237 232 199 186 181 192 138 218 216 220 233 248 266 281 282 269 241 258 290 309
272 257 191 181 180 183 177 174 144 88 156 199 164 218 212 231 222 251 245 53 273 142 109 56 27 80 350 70 59 79 15 274 202 229 235 228 178 156 177 191 213 219 214 230 232 237 258 264 269 281 263 265 245 280
267 229 183 169 173 172 170 118 65 82 209 204 223 202 293 75 296 343 149 239 214 128 52 63 117 52 271 149 84 219 125 228 257 227 249 173 146 166 173 195 205 209 198 225 231 227 249 248 253 276 308 286 261 262
255 196 162 164 162 151 131 97 99 178 203 197 241 46 143 140 189 205 146 211 173 91 182 140 167 217 92 22 280 196 206 224 226 266 246 213 175 186 193 187 217 209 230 240 244 234 247 269 300 321 319 289 299 291
221 172 159 154 141 99 60 64 141 171 211 204 170 216 205 161 141 260 236 203 113 171 123 203 127 181 205 203 262 243 244 252 237 234 250 219 176 177 176 191 205 202 221 231 231 260 267 318 321 279 277 287 309 294
170 166 151 145 126 105 117 126 156 197 198 162 141 118 129 197 246 33 108 99 146 157 103 73 205 209 227 211 228 258 247 209 201 200 272 297 171 158 185 236 213 231 237 238 225 248 245 236 248 274 286 333 302 302
165 153 144 139 108 105 103 71 73 121 171 180 100 135 133 161 170 80 65 52 106 96 74 205 220 223 204 231 190 223 231 164 139 82 328 280 201 136 189 182 224 240 249 296 287 282 343 322 293 289 300 285 308 300
131 139 125 106 65 67 81 130 73 136 128 118 132 116 107 34 56 97 147 179 68 203 235 224 237 257 26 321 300 250 242 159 193 170 177 180 207 161 194 181 187 299 205 274 286 311 338 255 277 297 297 293 269 266
111 113 90 58 83 65 78 4 106 129 83 115 98 76 97 106 167 218 183 88 224 239 204 224 269 307 327 299 313 307 289 151 122 106 70 110 127 142 240 199 139 240 240 237 202 256 271 279 296 298 295 290 287 288
105 90 66 74 89 55 277 348 87 10 114 184 52 67 13 54 230 355 157 227 251 246 262 281 283 281 284 302 6 352 15 152 106 104 99 89 87 65 92 111 199 145 293 294 216 246 275 307 306 303 295 299 297 305
60 61 87 90 81 118 41 48 53 77 67 63 97 109 251 193 327 61 243 252 254 308 359 336 330 332 9 24 41 348 341 31 103 66 50 104 102 11 63 235 302 240 219 262 273 310 316 304 311 306 302 308 308 305
86 21 85 65 38 107 100 83 26 62 112 182 95 43 218 88 98 188 229 270 317 323 318 320 337 359 164 74 53 336 356 58 114 113 322 123 121 44 354 329 282 245 203 7 0 342 305 304 303 311 314 302 311 317
82 341 94 157 121 115 159 119 167 167 129 112 196 239 70 94 86 243 234 232 237 223 281 348 350 343 27 11 327 330 324 351 39 86 276 196 158 139 154 111 360 318 176 113 103 309 305 298 306 316 315 319 315 312
112 119 33 283 86 109 81 45 76 98 114 153 187 121 94 121 243 253 279 223 179 234 214 244 258 255 325 334 339 348 340 347 111 153 128 100 96 176 142 138 186 248 92 180 217 226 269 304 310 312 310 312 309 305
104 127 111 158 78 24 119 91 111 157 196 227 90 156 162 190 217 244 210 248 215 265 265 253 246 256 308 349 11 18 33 29 49 60 56 58 48 44 44 42 23 40 292 247 248 252 253 277 295 298 305 306 307 308
62 8 82 52 50 45 109 138 186 220 208 141 141 177 198 58 201 311 299 306 285 336 357 358 2 148 86 53 43 28 32 22 66 63 62 317 349 334 9 26 3 319 301 304 300 315 305 299 300 307 299 296 294 297
19 8 92 65 87 100 265 156 190 266 5 117 105 74 30 357 272 241 332 347 27 349 292 294 41 220 137 125 124 52 27 46 85 149 146 179 220 275 15 346 306 302 310 332 340 334 328 342 318 319 317 316 321 332
40 61 72 55 90 274 248 306 312 39 33 44 353 103 186 214 315 313 2 325 298 283 291 99 67 13 83 71 63 101 23 344 350 331 88 78 62 36 310 279 275 294 331 348 346 327 331 331 329 328 335 339 340 343
25 55 108 88 6 301 26 54 24 64 345 47 342 2 6 69 50 27 4 333 350 49 22 357 85 72 31 41 48 225 282 264 338 12 26 43 11 268 264 278 305 338 345 347 328 326 320 328 319 339 336 336 338 343
50 52 63 88 43 16 328 73 25 20 26 40 353 264 37 56 77 26 53 33 22 6 18 31 40 41 45 28 352 298 324 311 316 21 44 45 293 278 267 292 332 342 346 335 329 327 338 333 338 341 338 339 341 349